Terminal Aerodrome Forecast
Issued by NWS Mt. Holly, NJ

Home | Current Version | Previous Version | Text Only | Print | Product List | Glossary On
Versions: 1 2 3 4 5 6 7 8 9 10 11 12 13 14 15 16
000
FTUS41 KPHI 261956 AAA
TAFABE
TAF AMD
KABE 261956Z 2620/2718 13003KT P6SM BKN021 OVC030
     FM262100 VRB03KT P6SM BKN030
     FM270700 00000KT P6SM BKN010
     FM271000 VRB03KT 2SM BR OVC006
     FM271400 10003KT P6SM BKN025
     FM271600 13003KT P6SM BKN035=

USA.gov is the U.S. government's official web portal to all federal, state and local government web resources and services.